Location: Unnamed
(48.6007°N, 2.4808°E)
Time: 09:51:15
(UTC+02:00)

PCSat - Pass Details

Date: 02 April 2023
Orbit: 783 x 794 km, 67.1° (Epoch: 29 May)

Event Time Altitude Azimuth Distance (km) Brightness Sun altitude
Rises 22:50:39 0° 325° (NW) 3,300 14.1 -23.2°
Reaches altitude 10° 22:53:56 10° 345° (NNW) 2,370 12.7 -23.6°
Maximum altitude 22:57:29 17° 26° (NNE) 1,911 11.7 -24.0°
Enters shadow 22:59:42 14° 54° (NE) 2,102 11.6 -24.3°
